Погода в Славгороде

Погода в Славгороде : погода сейчас, прогноз погоды и архив. Всё, что Вы хотите узнать о погоде в Славгороде!

Хотите узнать прогноз погоды в Славгороде? Тогда Вам сюда: Погода в Славгороде

Поиск расширенной информации на нашем сайте:

Полезная информация: Самая подробная информация статусы про сук у нас на сайте.

Другие новости

Новости СМИ2

Главная страница сайта

Новости сайта

03.07.2017

Напоминаем, что на нашем специализированном сайте Метеоцентр.Азия вы можете получить высокодетализированные автоматические прогнозы погоды по пунктам России, СНГ и мира в авиационном формате (включающие направление и скорость ветра, видимость, явления погоды, количество и форму облачности, нижнюю и верхнюю границу облачности).

Рекомендуем: гаджет погоды

Погода в Славгороде - сегодня

Время (UTC), дата Ветер
(°,м/с) 
Видим.   Явления Облачность Т
(°С)
Тd
(°С)
f(%) Тe
(°С)
Pmin
(гПа)
dP
(гПа)
Po
(мм)
O2
(г/м3)
Тmin Tmax R s Состояние
почвы
15 13.08.18 250 (З) 20000 м    9/0 верхняя 
[Ci sp]
+22.3 +8 40 +22  1013.2  -0.8  745  276           
18 13.08.18 120 (ЮВ) 15000 м    6/4 600 м средняя 
[Sc diur, vesp|Ac trans]
+19.7 +10.4 55 +23  1012.5  -0.8  745  278    +23.6       
21 13.08.18 100 (В) 20000 м    3/3 600 м 
[Sc diur, vesp]
+15.6 +10.8 73 +19  1013  0.1  745  282           
00 14.08.18 170 (Ю) 20000 м    6/6 600 м 
[Sc]
+15.9 +11.5 75 +19  1013.1  0.2  745  281           
06 14.08.18 100 (В) 20000 м    8/0 верхняя 
[Ci fib]
+18.5 +14 75 +27  1013.5  0.7  745  278  +13.6         
09 14.08.18 090 (В) 20000 м    4/3 1000 м верхняя 
[Cu med, cong|Ci sp]
+24.7 +14.5 53 +33  1013  745  272           
12 14.08.18 170 (Ю) 20000 м    8/5 1000 м верхняя 
[Cu med, cong|Ci sp]
+25.7 +15.1 52 +35  1012.5  -0.4  745  271           
15 14.08.18 100 (В) 20000 м    8/3 1000 м верхняя 
[Cu med, cong|Ci sp]
+26.5 +15.2 50 +36  1011.4  -1  744  270           
18 14.08.18 100 (В) 15000 м    4/0 верхняя 
[Ci sp]
+22.9 +16.2 66 +34  1012.1  0.4  745  273    +27.1       
21 14.08.18 120 (ЮВ) 20000 м    3/0 верхняя 
[Ci sp]
+20.4 +16 76 +31  1011.1  -1.2  744  275           
00 15.08.18 170 (Ю) 20000 м    3/0 верхняя 
[Ci sp]
+19.6 +15.5 77 +31  1010.1  -1  743  276           
06 15.08.18 240 (ЮЗ) 16000 м  {гроза}  3/1 1000 м верхняя 
[Sc|Cc]
+22.2 +16.9 72 +35  1009.8  -0.2  743  273  +18.1         
09 15.08.18 280 (З) 20000 м    8/5 600 м средняя 
[Sc|Ac und]
+25.2 +16.4 58 +37  1010.6  744  271           
12 15.08.18 280 (З) 20000 м  {ливн. осадки}  9/9 600 м 
[Sc]
+25.1 +15.4 55 +35  1011.5  0.9  744  271      0.9     
15 15.08.18 280 (З) 20000 м    8/3 600 м средняя 
[Sc|Ac und]
+24.1 +15.1 57 +33  1012.6  745  273         
18 15.08.18 240 (ЮЗ) 20000 м    9/6 600 м средняя 
[Sc|Ac und]
+20.8 +16.4 76 +32  1013.6  0.7  746  276    +26.5     
21 15.08.18 230 (ЮЗ) 20000 м    6/6 600 м 
[Sc]
+18.8 +16 84 +31  1014.4  0.7  746  278           
00 16.08.18 240 (ЮЗ) 17000 м    8/8 600 м 
[Sc]
+18 +16.2 89 +30  1014.9  0.4  746  279           
06 16.08.18 тихо ()   20000 м  {туман}  8/0 верхняя 
[Ci sp]
+21.9 +15.3 66 +31  1016.1  0.9  747  276  +15.5         
09 16.08.18 280 (З) 20000 м    8/8 600 м кучево-дожд. 
[Cb calv]
+23.4 +15.5 61 +33  1016.4  0.4  748  274           
12 16.08.18 280 (З) 20000 м  гроза без осадков  9/9 600 м кучево-дожд. 
[Cb calv]
+24.4 +14.2 53 +32  1016.8  0.4  748  274           
15 16.08.18 340 (С) 20000 м  {гроза}  8/8 1000 м 
[Sc]
+23.6 +16.1 63 +34  1017.1  0.3  748  274           
18 16.08.18 350 (С) 20000 м  {гроза}  4/1 600 м средняя 
[Sc|Ac trans]
+20.2 +15.2 73 +29  1018.4  749  278    +25.3       
21 16.08.18 020 (С) 20000 м    ясно 
+17.8 +15.4 86 +28  1019.1  0.5  749  280           
00 17.08.18 040 (СВ) 10 км    ясно 
+16 +15 94 +26  1019.9  0.6  750  282           
Время (UTC), дата Ветер
(°,м/с) 
Видим.   Явления Облачность Т
(°С)
Тd
(°С)
f(%) Тe
(°С)
Pmin
(гПа)
dP
(гПа)
Po
(мм)
O2
(г/м3)
Тmin Tmax R s Состояние
почвы

Для получения пояснительной информации подведите курсор к названию столбца.

ПОГОДА в Славгороде - архив

Всё, что Вы хотите узнать о погоде в Славгороде - удобно и подробно!

Выберите нужную дату (начиная с 1 января 2015* года) и нажмите кнопку "Найти".
Будут отображены архивные сводки погоды по пункту Славгород, начиная с указанной даты.


Отображать данные в формате CSV (для использования в таблицах Excel)


Внимание! Наш архив погоды предназначен исключительно для личного некоммерческого использования в познавательных целях. Если Вам необходимы официальные справки о состоянии погоды (для производственных, юридических, коммерческих и т.п. целей), обращайтесь в органы Росгидромета.

*Примечание: данная дата относится к архиву по метеостанциям СССР (Россия, СНГ, Балтия).
Архив по метеостанциям Зарубежной Европы и Азии (кроме Китая) хранится 10 дней, по другим регионам земного шара (Китай, Африка, Америка, Австралия, Океания) - 1 день.

Славгород - район местоположения метеостанции


Название, широта, долгота, высота метеостанции:
Славгород 53.4°ш. 31°д. 170 м над ур. моря [Беларусь]

Дополнительная информация

В oтличие oт бoльшинства пoгoдных сайтoв мы публикуем пoдрoбную метеoинфoрмацию в детальнoм прoфессиoнальнoм фoрмате.

Характеристики температуры и влажнoсти вoздуха измеряются на высoте 2 м в тени вдали oт зданий и деревьев.
Скoрoсть ветра измеряется на высoте 10 м (на урoвне рoста челoвека скoрoсть ветра ниже в 1.5-2 раза). Если метеoстанция нахoдится в гoрoде или в лесу, тo скoрoсть ветра занижена на 2-4 м/с пo сравнению с oткрытым местoм. Скoрoсть ветра над акватoриями крупных рек и oзёр, а также на вершинах хoлмoв на 2-5 м/с выше, чем в oбычных услoвиях.
Атмoсфернoе давление в разных тoчках местнoсти мoжет значительнo oтличаться oт давления на метеoстанции, в зависимoсти oт услoвий рельефа (при пoдъёме на 10 м давление пoнижается примернo на 1 мм рт.ст.).